Observations for Trim Patrick St
| Time | AQI | Temp °C | Hum % | Pres Pa | CO μg/m³ | H₂S μg/m³ | NO μg/m³ | NO₂ μg/m³ | O₃ μg/m³ | SO₂ μg/m³ | PM1 μg/m³ | PM2.5 μg/m³ | PM10 μg/m³ |
|---|---|---|---|---|---|---|---|---|---|---|---|---|---|
| Monday 3 August 2026 | |||||||||||||
| 15:30 | 3 | 32 | 33 | 69,334 | 0 | 0 | 1.57 | 23.09 | 183.65 | 14.27 | 6.29 | 12.3 | 13.53 |
| 15:29 | 3 | 32.1 | 33 | 69,341 | 0 | 0 | 1.64 | 17.69 | 159.33 | 14.28 | 4.57 | 10.65 | 11.72 |
| 15:28 | 3 | 32.1 | 32 | 69,351 | 0 | 0 | 1.46 | 16.25 | 99.56 | 12.1 | 5.43 | 12.39 | 13.63 |
| 15:27 | 3 | 32.2 | 33 | 69,361 | 0 | 0 | 1.59 | 18.42 | 110.51 | 15.39 | 4.57 | 11.49 | 12.64 |
| 15:26 | 3 | 32.2 | 32 | 69,347 | 0 | 0 | 1.55 | 25.35 | 115.36 | 12.41 | 5.43 | 11.58 | 12.74 |
| 15:25 | 3 | 32.2 | 32 | 69,330 | 0 | 0 | 1.54 | 19.81 | 143.75 | 13.47 | 5.43 | 11.56 | 12.72 |
| 15:24 | 3 | 32.3 | 32 | 69,332 | 0 | 0 | 1.54 | 17.04 | 125.91 | 14.32 | 5.43 | 11.56 | 12.71 |
| 15:23 | 3 | 32.3 | 33 | 69,334 | 0 | 0 | 1.64 | 15.53 | 76.93 | 11.83 | 5.43 | 12.3 | 13.53 |
| 15:22 | 3 | 32.3 | 34 | 69,339 | 0 | 0 | 1.63 | 26.9 | 111.69 | 13.67 | 6.29 | 12.24 | 13.47 |
| 15:21 | 3 | 32.3 | 32 | 69,345 | 0 | 0 | 1.47 | 23.45 | 133.2 | 14.52 | 5.43 | 11.56 | 12.71 |
| 15:20 | 3 | 32.3 | 32 | 69,351 | 0 | 0 | 1.46 | 25.84 | 117.99 | 11.8 | 3.71 | 9.98 | 10.98 |
| 15:19 | 3 | 32.3 | 32 | 69,357 | 0 | 0 | 1.44 | 23.63 | 138.71 | 12.96 | 5.43 | 12.35 | 13.58 |
| 15:18 | 3 | 32.2 | 32 | 69,369 | 0 | 0 | 1.45 | 17.47 | 140.46 | 13.66 | 5.43 | 10.74 | 11.81 |
| 15:17 | 3 | 32.2 | 34 | 69,385 | 0 | 0 | 1.59 | 13.08 | 79.61 | 12.63 | 4.57 | 11.44 | 12.58 |
| 15:16 | 3 | 32.2 | 32 | 69,375 | 0 | 0 | 1.5 | 21.22 | 121.07 | 12.95 | 5.43 | 11.52 | 12.67 |
| 15:15 | 3 | 32.1 | 33 | 69,363 | 0 | 0 | 1.52 | 27.89 | 168.95 | 13.02 | 3.71 | 10.68 | 11.75 |
| 15:14 | 3 | 32 | 33 | 69,345 | 0 | 0 | 1.62 | 14.41 | 123.92 | 13.2 | 5.43 | 11.46 | 12.61 |
| 15:13 | 3 | 32 | 33 | 69,353 | 0 | 0 | 1.56 | 19.13 | 129.39 | 12.01 | 3.71 | 9.89 | 10.88 |
| 15:12 | 3 | 32 | 32 | 69,361 | 0 | 0 | 1.5 | 14.12 | 96.14 | 12.99 | 4.57 | 11.58 | 12.74 |
| 15:11 | 3 | 31.9 | 33 | 69,373 | 0 | 0 | 1.54 | 16.75 | 93.88 | 12.14 | 5.43 | 12.3 | 13.53 |